TimeCST,TemperatureF,Dew PointF,Humidity,Sea Level PressureIn,VisibilityMPH,Wind Direction,Wind SpeedMPH,Gust SpeedMPH,PrecipitationIn,Events,Conditions,WindDirDegrees,DateUTC
12:15 AM,30.2,26.6,86,30.35,10.0,Calm,Calm,-,N/A,,Overcast,0,2013-01-04 06:15:00
12:35 AM,30.2,26.6,86,30.35,10.0,Calm,Calm,-,N/A,,Unknown,0,2013-01-04 06:35:00
12:55 AM,30.2,26.6,86,30.35,10.0,Calm,Calm,-,N/A,,Unknown,0,2013-01-04 06:55:00
1:15 AM,30.2,24.8,80,30.35,10.0,SW,3.5,-,N/A,,Mostly Cloudy,220,2013-01-04 07:15:00
1:35 AM,28.4,24.8,86,30.35,10.0,Calm,Calm,-,N/A,,Unknown,0,2013-01-04 07:35:00
1:55 AM,28.4,24.8,86,30.36,10.0,Calm,Calm,-,N/A,,Unknown,0,2013-01-04 07:55:00
2:15 AM,28.4,24.8,86,30.36,10.0,Calm,Calm,-,N/A,,Unknown,0,2013-01-04 08:15:00
2:35 AM,26.6,24.8,93,30.35,10.0,Calm,Calm,-,N/A,,Clear,0,2013-01-04 08:35:00
3:15 AM,24.8,23.0,93,30.35,10.0,SW,3.5,-,N/A,,Clear,220,2013-01-04 09:15:00
5:35 AM,24.8,21.2,86,30.37,7.0,West,5.8,-,N/A,,Clear,270,2013-01-04 11:35:00
5:55 AM,24.8,21.2,86,30.38,7.0,West,5.8,-,N/A,,Clear,270,2013-01-04 11:55:00
6:15 AM,24.8,21.2,86,30.39,7.0,West,5.8,-,N/A,,Clear,270,2013-01-04 12:15:00
6:35 AM,23.0,21.2,93,30.39,7.0,West,4.6,-,N/A,,Clear,270,2013-01-04 12:35:00
6:55 AM,21.2,19.4,93,30.39,7.0,West,4.6,-,N/A,,Clear,280,2013-01-04 12:55:00
7:15 AM,21.2,19.4,93,30.38,7.0,Calm,Calm,-,N/A,,Clear,0,2013-01-04 13:15:00
7:35 AM,21.2,19.4,93,30.39,7.0,Calm,Calm,-,N/A,,Clear,0,2013-01-04 13:35:00
7:55 AM,21.2,19.4,93,30.40,7.0,Calm,Calm,-,N/A,,Clear,0,2013-01-04 13:55:00
8:15 AM,24.8,21.2,86,30.39,5.0,Calm,Calm,-,N/A,,Clear,0,2013-01-04 14:15:00
8:35 AM,26.6,21.2,80,30.40,7.0,Calm,Calm,-,N/A,,Clear,0,2013-01-04 14:35:00
9:15 AM,30.2,23.0,75,30.43,7.0,Calm,Calm,-,N/A,,Clear,0,2013-01-04 15:15:00
9:35 AM,30.2,23.0,75,30.43,7.0,West,9.2,-,N/A,,Mostly Cloudy,260,2013-01-04 15:35:00
9:55 AM,28.4,21.2,74,30.43,10.0,West,9.2,-,N/A,,Scattered Clouds,260,2013-01-04 15:55:00
10:15 AM,32.0,23.0,69,30.44,10.0,West,9.2,-,N/A,,Scattered Clouds,260,2013-01-04 16:15:00
10:35 AM,33.8,21.2,60,30.43,10.0,West,8.1,-,N/A,,Scattered Clouds,270,2013-01-04 16:35:00
10:55 AM,33.8,21.2,60,30.42,10.0,West,6.9,-,N/A,,Clear,260,2013-01-04 16:55:00
11:15 AM,35.6,21.2,56,30.41,10.0,WSW,5.8,-,N/A,,Clear,250,2013-01-04 17:15:00
11:35 AM,37.4,24.8,60,30.40,10.0,West,4.6,-,N/A,,Clear,260,2013-01-04 17:35:00
12:15 PM,37.4,24.8,60,30.38,10.0,West,5.8,-,N/A,,Clear,260,2013-01-04 18:15:00
12:35 PM,37.4,24.8,60,30.37,10.0,West,8.1,-,N/A,,Clear,280,2013-01-04 18:35:00
12:55 PM,39.2,24.8,56,30.36,10.0,WSW,6.9,-,N/A,,Clear,250,2013-01-04 18:55:00
1:15 PM,37.4,24.8,60,30.36,10.0,West,8.1,-,N/A,,Clear,260,2013-01-04 19:15:00
1:35 PM,37.4,24.8,60,30.36,10.0,SW,4.6,-,N/A,,Clear,220,2013-01-04 19:35:00
1:55 PM,39.2,24.8,56,30.36,10.0,WSW,5.8,-,N/A,,Clear,240,2013-01-04 19:55:00
2:15 PM,37.4,24.8,60,30.36,10.0,WSW,6.9,-,N/A,,Clear,250,2013-01-04 20:15:00
2:35 PM,39.2,24.8,56,30.36,10.0,WSW,4.6,-,N/A,,Clear,250,2013-01-04 20:35:00
2:55 PM,37.4,24.8,60,30.36,10.0,WSW,5.8,-,N/A,,Clear,240,2013-01-04 20:55:00
3:15 PM,37.4,24.8,60,30.36,10.0,SW,3.5,-,N/A,,Clear,230,2013-01-04 21:15:00
3:35 PM,37.4,26.6,65,30.36,10.0,SW,3.5,-,N/A,,Clear,220,2013-01-04 21:35:00
3:55 PM,35.6,24.8,65,30.36,10.0,WSW,6.9,-,N/A,,Clear,240,2013-01-04 21:55:00
4:15 PM,33.8,26.6,75,30.36,10.0,SSW,3.5,-,N/A,,Clear,200,2013-01-04 22:15:00
4:35 PM,32.0,26.6,80,30.36,10.0,Calm,Calm,-,N/A,,Clear,0,2013-01-04 22:35:00
4:55 PM,32.0,26.6,80,30.36,10.0,Calm,Calm,-,N/A,,Clear,0,2013-01-04 22:55:00
5:15 PM,30.2,24.8,80,30.36,10.0,Calm,Calm,-,N/A,,Clear,0,2013-01-04 23:15:00
5:35 PM,28.4,24.8,86,30.36,10.0,South,3.5,-,N/A,,Clear,180,2013-01-04 23:35:00
5:55 PM,28.4,24.8,86,30.36,10.0,Calm,Calm,-,N/A,,Clear,0,2013-01-04 23:55:00
6:15 PM,28.4,24.8,86,30.36,10.0,SSE,3.5,-,N/A,,Clear,160,2013-01-05 00:15:00
6:35 PM,28.4,24.8,86,30.36,10.0,South,3.5,-,N/A,,Clear,180,2013-01-05 00:35:00
6:55 PM,28.4,24.8,86,30.35,10.0,Calm,Calm,-,N/A,,Clear,0,2013-01-05 00:55:00
7:15 PM,26.6,23.0,86,30.35,10.0,Calm,Calm,-,N/A,,Clear,0,2013-01-05 01:15:00
7:35 PM,26.6,24.8,93,30.34,10.0,SE,3.5,-,N/A,,Clear,140,2013-01-05 01:35:00
7:55 PM,26.6,24.8,93,30.34,10.0,South,3.5,-,N/A,,Clear,170,2013-01-05 01:55:00
8:15 PM,24.8,21.2,86,30.35,10.0,South,3.5,-,N/A,,Clear,190,2013-01-05 02:15:00
8:35 PM,26.6,23.0,86,30.35,10.0,South,3.5,-,N/A,,Clear,190,2013-01-05 02:35:00
8:55 PM,26.6,21.2,80,30.35,10.0,Calm,Calm,-,N/A,,Clear,0,2013-01-05 02:55:00
9:15 PM,26.6,21.2,80,30.35,10.0,Calm,Calm,-,N/A,,Clear,0,2013-01-05 03:15:00
9:35 PM,24.8,21.2,86,30.35,10.0,Calm,Calm,-,N/A,,Clear,0,2013-01-05 03:35:00
9:55 PM,24.8,21.2,86,30.35,10.0,South,3.5,-,N/A,,Clear,170,2013-01-05 03:55:00
10:15 PM,24.8,21.2,86,30.35,10.0,South,3.5,-,N/A,,Clear,180,2013-01-05 04:15:00
10:35 PM,24.8,21.2,86,30.34,10.0,South,3.5,-,N/A,,Clear,170,2013-01-05 04:35:00
10:55 PM,24.8,21.2,86,30.34,10.0,Calm,Calm,-,N/A,,Clear,0,2013-01-05 04:55:00
11:15 PM,24.8,21.2,86,30.34,10.0,SSE,3.5,-,N/A,,Clear,160,2013-01-05 05:15:00
11:35 PM,24.8,21.2,86,30.34,10.0,South,3.5,-,N/A,,Clear,170,2013-01-05 05:35:00
11:55 PM,24.8,21.2,86,30.33,10.0,South,3.5,-,N/A,,Clear,170,2013-01-05 05:55:00